Terminal Aerodrome Forecast
Issued by NWS

Home | Current Version | Previous Version | Graphics & Text | Print | Product List | Glossary Off
Versions: 1 2 3 4 5 6 7 8 9 10 11 12 13 14 15 16 17

000
FTUS43 KDDC 162300
TAFGCK
TAF
KGCK 162320Z 1700/1724 36017G23KT P6SM FEW120 BKN200
     FM170500 03010KT P6SM OVC100
     FM170800 02012KT 5SM -SHRA BKN050
     FM171700 10010KT P6SM SCT100=

USA.gov is the U.S. government's official web portal to all federal, state and local government web resources and services.